Stations météo

Publicité
Toulouse/Blagnac, France (7630): Température de l'air & dewpoint: 21.06.2019 12:00:00 - 27.06.2019 12:00:00 (CEST)Toulouse/Blagnac, France (7630): Température de l'air 5cm: 21.06.2019 12:00:00 - 27.06.2019 12:00:00 (CEST)Toulouse/Blagnac, France (7630): Température de l'air -20cm & Température de l'air -100cm: 21.06.2019 12:00:00 - 27.06.2019 12:00:00 (CEST)Toulouse/Blagnac, France (7630): Vitesse du vent & gusts: 21.06.2019 12:00:00 - 27.06.2019 12:00:00 (CEST)Toulouse/Blagnac, France (7630): Direction du vent: 21.06.2019 12:00:00 - 27.06.2019 12:00:00 (CEST)Toulouse/Blagnac, France (7630): reduced air pressure: 21.06.2019 12:00:00 - 27.06.2019 12:00:00 (CEST)Toulouse/Blagnac, France (7630): visibility: 21.06.2019 12:00:00 - 27.06.2019 12:00:00 (CEST)Toulouse/Blagnac, France (7630): Ensoleillement: 21.06.2019 12:00:00 - 27.06.2019 12:00:00 (CEST)Toulouse/Blagnac, France (7630): Quantités de précipitations: 21.06.2019 12:00:00 - 27.06.2019 12:00:00 (CEST)
Date & Time tt [°C] td [°C] tt 5cm [°C] tt -20cm [°C] tt -100cm [°C] ff [km/h] ff [knt] fx [km/h] fx [knt] dd ppp [hPa] vv [km] sd [min] rr [mm]
27.06.2019 12:00:00 34,9 14,2 41,7 22,9 18,2 24 13 39 21 SE 1018,1 15 60 0,0
27.06.2019 11:00:00 32,8 15,3 38,8 22,8 18,2 18 10 34 19 SE 1018,2 17 60 0,0
27.06.2019 10:00:00 29,9 15,6 32,9 22,8 18,2 16 9 34 19 SE 1018,5 14 60 0,0
27.06.2019 09:00:00 27,6 15,3 25,9 22,9 18,2 18 10 29 16 SE 1018,6 30 60 0,0
27.06.2019 08:00:00 25,5 15,2 18,9 23,0 18,2 10 6 22 12 SE 1018,4 19 60 0,0
27.06.2019 07:00:00 24,3 14,4 18,9 23,2 18,2 5 3 37 20 ESE 1018,1 32 20 0,0
27.06.2019 06:00:00 25,2 13,4 16,4 23,4 18,2 24 13 35 19 SE 1017,7 37 0 0,0
27.06.2019 05:00:00 25,0 12,6 16,6 23,5 18,2 5 3 24 13 ESE 1017,5 39 0 0,0
27.06.2019 04:00:00 25,1 13,0 20,4 23,7 18,2 13 7 48 26 SSE 1017,5 38 0 0,0
27.06.2019 03:00:00 26,5 13,6 23,6 23,9 18,1 27 15 44 24 SE 1017,5 39 0 0,0
27.06.2019 02:00:00 27,0 13,7 24,2 24,0 18,1 25 13 50 27 SE 1017,6 38 0 0,0
27.06.2019 01:00:00 27,3 14,0 24,6 24,2 18,1 25 13 46 25 SE 1017,6 37 0 0,0
27.06.2019 00:00:00 27,6 13,2 25,0 24,4 18,1 23 12 48 26 SE 1017,4 40 0 0,0
26.06.2019 23:00:00 28,7 12,6 26,0 24,5 18,1 28 15 43 23 SE 1016,9 42 0 0,0
26.06.2019 22:00:00 29,8 12,2 26,7 24,6 18,1 19 11 59 32 SE 1016,1 42 14 0,0
26.06.2019 21:00:00 31,2 13,0 29,7 24,6 18,1 32 17 61 33 SE 1015,5 28 60 0,0
26.06.2019 20:00:00 32,8 13,4 33,4 24,4 18,1 31 17 55 30 SE 1015,1 17 60 0,0
26.06.2019 19:00:00 34,4 12,7 37,0 24,3 18,1 31 17 63 34 ESE 1014,6 12 60 0,0
26.06.2019 18:00:00 35,0 12,6 39,9 24,0 18,1 32 17 63 34 ESE 1014,7 11 60 0,0
26.06.2019 17:00:00 36,0 12,9 42,3 23,5 18,0 34 18 61 33 ESE 1014,8 10 60 0,0
26.06.2019 16:00:00 36,3 11,9 42,5 23,1 18,0 41 22 70 38 ESE 1015,3 10 60 0,0
26.06.2019 15:00:00 36,2 11,8 42,1 22,7 18,0 39 21 66 36 ESE 1015,5 10 60 0,0
26.06.2019 14:00:00 35,3 12,3 41,8 22,4 18,1 39 21 67 36 ESE 1016,0 12 60 0,0
26.06.2019 13:00:00 34,4 12,7 39,2 22,0 18,0 35 19 67 36 ESE 1016,2 13 60 0,0
26.06.2019 12:00:00 32,9 12,0 39,0 21,8 18,0 43 23 64 35 ESE 1016,6 10 60 0,0
26.06.2019 11:00:00 32,1 12,8 37,0 21,7 18,0 27 14 48 26 ESE 1016,9 10 60 0,0
26.06.2019 10:00:00 29,6 13,4 31,5 21,7 18,0 21 12 48 26 SE 1016,9 10 60 0,0
26.06.2019 09:00:00 26,8 13,2 25,3 21,7 18,0 29 15 51 28 SE 1017,2 15 60 0,0
26.06.2019 08:00:00 24,8 13,0 22,0 21,9 18,0 30 16 53 29 SE 1017,1 11 60 0,0
26.06.2019 07:00:00 23,6 13,5 21,5 22,0 18,0 29 15 58 31 SE 1016,8 13 21 0,0
26.06.2019 06:00:00 23,7 13,8 21,6 22,2 18,0 40 21 65 35 SE 1015,8 38 0 0,0
26.06.2019 05:00:00 23,8 13,1 21,6 22,3 18,0 37 20 60 33 SE 1015,4 38 0 0,0
26.06.2019 04:00:00 24,1 12,1 21,2 22,5 18,0 25 14 48 26 SE 1015,4 41 0 0,0
26.06.2019 03:00:00 24,2 12,2 21,3 22,7 18,0 22 12 42 23 SE 1015,8 39 0 0,0
26.06.2019 02:00:00 24,3 12,9 21,4 22,8 18,0 23 12 44 24 SE 1016,2 39 0 0,0
26.06.2019 01:00:00 24,9 13,8 22,5 22,9 17,9 24 13 47 25 SE 1016,2 36 0 0,0
26.06.2019 00:00:00 25,6 13,8 22,7 23,1 17,9 20 11 51 27 SE 1016,3 36 0 0,0
25.06.2019 23:00:00 26,8 12,8 24,8 23,2 18,0 31 17 54 29 SE 1016,3 41 0 0,0
25.06.2019 22:00:00 28,0 11,9 25,5 23,3 18,0 32 18 59 32 ESE 1015,7 39 15 0,0
25.06.2019 21:00:00 29,1 12,9 27,4 23,3 18,0 24 13 51 28 SE 1015,4 23 60 0,0
25.06.2019 20:00:00 30,3 9,8 29,8 23,2 17,9 34 18 55 30 SE 1015,2 27 37 0,0
25.06.2019 19:00:00 32,4 11,0 36,7 23,0 17,9 26 14 50 27 SE 1014,9 10 60 0,0
25.06.2019 18:00:00 33,1 11,0 39,2 22,7 17,9 32 17 49 26 SE 1014,7 10 60 0,0
25.06.2019 17:00:00 33,4 12,4 39,1 22,4 17,9 30 16 49 26 SE 1014,9 10 60 0,0
25.06.2019 16:00:00 32,7 12,3 38,2 21,9 17,9 32 18 50 27 SE 1015,0 9 52 0,0
25.06.2019 15:00:00 32,1 13,3 37,7 21,6 17,9 32 17 62 34 SE 1015,4 10 60 0,0
25.06.2019 14:00:00 31,1 14,3 36,9 21,3 17,9 35 19 54 29 SE 1016,0 10 57 0,0
25.06.2019 13:00:00 28,5 16,7 33,0 21,1 17,9 24 13 53 28 SE 1016,8 9 42 0,0
25.06.2019 12:00:00 26,0 16,3 32,4 20,9 17,9 32 17 50 27 SE 1017,1 10 60 0,0
25.06.2019 11:00:00 24,1 17,6 28,1 20,8 17,9 24 13 42 23 SSE 1017,4 10 22 0,0
25.06.2019 10:00:00 22,6 17,5 25,5 20,8 17,9 18 10 35 19 SSE 1017,8 10 26 0,0
25.06.2019 09:00:00 21,4 17,0 20,8 20,9 17,9 19 10 31 17 SSE 1017,7 11 32 0,0
25.06.2019 08:00:00 18,8 17,1 16,4 21,0 17,8 3 2 9 5 SSE 1017,3 8 1 0,0
25.06.2019 07:00:00 18,0 16,5 14,6 21,1 17,8 6 4 18 10 S 1017,3 8 0 0,0
25.06.2019 06:00:00 18,2 16,5 14,7 21,3 17,9 7 4 15 8 SW 1017,1 8 0 0,0
25.06.2019 05:00:00 18,7 15,8 16,4 21,4 17,8 10 5 19 10 SSW 1016,6 27 0 0,0
25.06.2019 04:00:00 19,6 15,7 17,2 21,5 17,8 12 7 25 13 SSW 1016,0 31 0 0,0
25.06.2019 03:00:00 21,2 15,1 19,1 21,7 17,9 18 10 45 25 S 1015,2 34 0 0,0
25.06.2019 02:00:00 21,6 15,7 20,0 21,8 17,8 27 15 46 25 SSE 1014,6 29 0 0,0
25.06.2019 01:00:00 22,0 15,6 20,2 22,0 17,8 29 15 46 25 SSE 1014,3 31 0 0,0
25.06.2019 00:00:00 22,7 12,9 20,3 22,2 17,9 21 11 37 20 SSE 1013,7 42 0 0,0
24.06.2019 23:00:00 24,1 11,4 22,2 22,2 17,8 23 12 47 26 SE 1013,5 44 0 0,0
24.06.2019 22:00:00 24,9 11,1 23,0 22,3 17,8 24 13 54 29 SE 1012,9 45 15 0,0
24.06.2019 21:00:00 26,2 9,5 24,8 22,4 17,8 30 16 60 33 ESE 1012,6 30 60 0,0
24.06.2019 20:00:00 27,8 8,6 27,8 22,4 17,8 28 15 46 25 SE 1012,4 36 10 0,0
24.06.2019 19:00:00 28,5 11,5 28,4 22,3 17,8 30 16 46 25 ESE 1011,9 36 0 0,0
24.06.2019 18:00:00 29,0 12,0 30,6 22,2 17,8 28 15 52 28 SE 1012,6 15 27 0,0
24.06.2019 17:00:00 29,5 13,3 32,1 21,9 17,8 27 14 46 25 ESE 1013,0 14 16 0,0
24.06.2019 16:00:00 28,9 13,6 32,6 21,8 17,8 29 16 51 27 SE 1012,8 11 21 0,0
24.06.2019 15:00:00 28,8 13,9 30,8 21,5 17,8 27 15 46 25 SE 1012,7 8 23 0,0
24.06.2019 14:00:00 27,7 15,4 31,1 21,3 17,7 22 12 48 26 SE 1013,0 9 9 0,0
24.06.2019 13:00:00 27,0 16,6 32,1 21,0 17,8 30 16 48 26 SE 1013,1 7 35 0,0
24.06.2019 12:00:00 26,0 17,6 33,3 20,9 17,8 27 14 50 27 SE 1013,2 10 54 0,0
24.06.2019 11:00:00 24,8 17,5 27,8 20,8 17,8 26 14 50 27 SSE 1013,3 15 45 0,0
24.06.2019 10:00:00 23,7 16,7 24,5 20,8 17,8 34 19 51 28 SSE 1013,1 19 36 0,0
24.06.2019 09:00:00 22,2 16,7 21,2 20,9 17,7 22 12 39 21 SE 1012,7 23 0 0,0
24.06.2019 08:00:00 20,9 15,7 19,2 21,0 17,8 18 10 42 23 SE 1012,2 17 0 0,0
24.06.2019 07:00:00 20,4 15,2 18,3 21,2 17,7 24 13 35 19 SE 1012,2 24 0 0,0
24.06.2019 06:00:00 20,0 16,0 18,2 21,3 17,7 19 11 40 22 SE 1012,0 20 0 0,0
24.06.2019 05:00:00 20,3 16,1 16,3 21,5 17,7 21 11 30 16 SE 1012,2 19 0 0,0
24.06.2019 04:00:00 20,9 15,0 17,1 21,6 17,7 8 4 26 14 ESE 1012,2 19 0 0,0
24.06.2019 03:00:00 21,3 15,2 19,0 21,8 17,7 14 8 33 18 SE 1012,7 19 0 0,0
24.06.2019 02:00:00 21,7 15,1 19,3 21,9 17,7 14 7 27 14 SE 1013,1 22 0 0,0
24.06.2019 01:00:00 22,9 15,0 20,3 22,1 17,7 15 8 36 20 ESE 1013,4 23 0 0,0
24.06.2019 00:00:00 23,3 15,4 20,6 22,2 17,7 15 8 31 17 ESE 1013,4 25 0 0,0
23.06.2019 23:00:00 24,6 14,7 21,0 22,3 17,7 19 10 30 16 ESE 1013,5 28 0 0,0
23.06.2019 22:00:00 25,4 13,6 22,2 22,4 17,7 17 9 32 17 SE 1012,8 33 8 0,0
23.06.2019 21:00:00 27,2 13,5 25,2 22,4 17,7 23 12 39 21 SE 1012,3 25 25 0,0
23.06.2019 20:00:00 29,7 15,4 28,9 22,3 17,7 17 9 35 19 SE 1011,7 32 16 0,0
23.06.2019 19:00:00 30,4 15,3 30,9 22,1 17,7 18 10 31 17 SSE 1011,2 22 6 0,0
23.06.2019 18:00:00 31,6 16,0 34,8 21,8 17,7 21 11 31 17 SE 1010,9 16 39 0,0
23.06.2019 17:00:00 31,9 15,4 39,7 21,4 17,7 19 11 31 17 ESE 1010,9 16 60 0,0
23.06.2019 16:00:00 31,2 15,2 40,3 21,1 17,7 19 10 34 19 ESE 1011,3 16 60 0,0
23.06.2019 15:00:00 30,5 16,1 34,3 20,7 17,7 20 11 35 19 SE 1011,6 18 11 0,0
23.06.2019 14:00:00 29,4 15,1 37,1 20,3 17,7 24 13 38 20 SE 1011,8 16 57 0,0
23.06.2019 13:00:00 28,7 15,6 34,9 20,1 17,7 23 13 40 21 ESE 1012,1 18 60 0,0
23.06.2019 12:00:00 27,0 15,7 30,1 19,9 17,7 21 11 35 19 SE 1012,2 21 43 0,0
23.06.2019 11:00:00 24,7 15,1 26,4 19,8 17,7 21 11 38 21 SE 1012,5 22 22 0,0
23.06.2019 10:00:00 23,7 15,2 23,5 19,8 17,7 21 11 30 16 SE 1012,7 24 57 0,0
23.06.2019 09:00:00 20,1 14,0 18,9 19,9 17,7 12 7 23 12 ESE 1012,8 24 43 0,0
23.06.2019 08:00:00 17,9 13,0 15,5 20,0 17,7 11 6 25 14 ESE 1012,6 32 43 0,0
23.06.2019 07:00:00 16,8 12,3 12,2 20,2 17,7 16 9 24 13 SE 1012,7 19 22 0,0
23.06.2019 06:00:00 15,7 13,0 11,2 20,4 17,7 9 5 17 9 ESE 1012,7 31 0 0,0
23.06.2019 05:00:00 16,1 13,2 11,7 20,6 17,7 7 4 15 8 E 1012,8 32 0 0,0
23.06.2019 04:00:00 16,4 13,5 11,9 20,8 17,7 4 2 9 5 E 1013,1 23 0 0,0
23.06.2019 03:00:00 16,8 13,3 12,5 21,0 17,7 5 3 10 5 S 1013,8 22 0 0,0
23.06.2019 02:00:00 18,1 13,6 13,3 21,2 17,7 5 3 9 5 SE 1013,8 21 0 0,0
23.06.2019 01:00:00 18,9 13,3 14,0 21,3 17,7 5 3 10 5 E 1013,9 11 0 0,0
23.06.2019 00:00:00 20,3 12,8 14,2 21,5 17,7 8 4 14 8 E 1014,2 26 0 0,0
22.06.2019 23:00:00 20,9 12,8 14,7 21,6 17,7 5 3 11 6 ESE 1014,6 27 0 0,0
22.06.2019 22:00:00 21,9 12,2 16,0 21,7 17,7 7 4 11 6 E 1014,4 33 14 0,0
22.06.2019 21:00:00 23,1 12,1 20,1 21,6 17,7 7 4 16 9 SE 1014,2 32 60 0,0
22.06.2019 20:00:00 24,3 11,9 29,9 21,5 17,7 8 4 18 10 ESE 1014,2 30 60 0,0
22.06.2019 19:00:00 24,7 12,3 29,9 21,3 17,7 6 3 19 10 ENE 1014,2 15 49 0,0
22.06.2019 18:00:00 24,3 13,2 32,6 20,9 17,7 11 6 23 12 E 1014,6 23 58 0,0
22.06.2019 17:00:00 25,0 13,2 34,6 20,5 17,7 10 6 25 14 ENE 1015,1 20 55 0,0
22.06.2019 16:00:00 24,5 11,4 34,0 20,1 17,7 10 5 23 12 ENE 1015,7 20 42 0,0
22.06.2019 15:00:00 23,3 12,6 36,9 19,7 17,7 8 4 26 14 E 1016,5 21 60 0,0
22.06.2019 14:00:00 22,5 13,0 33,9 19,3 17,7 6 3 18 10 NNE 1017,0 24 57 0,0
22.06.2019 13:00:00 21,2 12,9 30,5 18,9 17,7 9 5 17 9 SE 1017,7 26 47 0,0
22.06.2019 12:00:00 20,3 13,3 26,0 18,8 17,7 4 2 13 7 N 1018,2 25 30 0,0
22.06.2019 11:00:00 19,1 13,3 20,9 18,7 17,6 3 2 15 8 N 1018,5 10 22 0,0
22.06.2019 10:00:00 17,0 13,7 19,5 18,7 17,7 4 2 14 7 W 1018,7 19 0 0,0
22.06.2019 09:00:00 16,1 13,6 16,3 18,8 17,7 9 5 17 9 W 1018,9 11 9 0,0
22.06.2019 08:00:00 15,3 14,3 12,7 18,9 17,7 2 1 12 6 ESE 1018,9 13 12 0,0
22.06.2019 07:00:00 14,5 13,5 12,7 19,0 17,7 10 5 18 10 W 1018,7 10 3 0,0
22.06.2019 06:00:00 14,9 14,3 13,2 19,1 17,7 11 6 16 9 NW 1018,7 10 0 0,0
22.06.2019 05:00:00 14,9 14,1 11,7 19,2 17,7 12 6 22 12 WNW 1018,7 11 0 0,0
22.06.2019 04:00:00 14,6 13,5 11,7 19,3 17,6 5 3 21 11 W 1019,4 11 0 0,0
22.06.2019 03:00:00 15,6 14,5 14,6 19,4 17,7 13 7 20 11 W 1019,8 12 0 0,0
22.06.2019 02:00:00 15,6 14,3 14,5 19,5 17,6 13 7 21 12 W 1020,1 14 0 0,0
22.06.2019 01:00:00 15,8 14,5 15,1 19,6 17,6 10 5 23 12 W 1020,3 16 0 0,0
22.06.2019 00:00:00 16,0 14,2 15,3 19,6 17,6 16 9 27 14 W 1020,5 19 0 0,0
21.06.2019 23:00:00 16,0 14,5 15,1 19,7 17,6 16 8 27 15 WSW 1020,3 20 0 0,0
21.06.2019 22:00:00 15,9 14,4 15,0 19,8 17,6 18 10 31 17 W 1019,9 21 4 0,0
21.06.2019 21:00:00 16,3 15,0 16,0 19,9 17,6 16 8 24 13 WSW 1019,6 29 0 0,0
21.06.2019 20:00:00 16,6 15,3 15,6 19,9 17,6 13 7 23 13 WSW 1019,4 25 0 1,8
21.06.2019 19:00:00 16,4 14,8 15,8 20,0 17,6 13 7 27 14 W 1019,1 2,7 0 0,8
21.06.2019 18:00:00 16,7 14,3 16,9 20,0 17,6 18 10 28 15 W 1018,9 27 0 0,0
21.06.2019 17:00:00 17,1 14,2 17,5 20,0 17,6 14 7 26 14 W 1018,6 34 0 0,0
21.06.2019 16:00:00 16,8 13,9 18,3 20,0 17,5 17 9 32 17 W 1018,7 25 0 0,0
21.06.2019 15:00:00 16,6 14,1 17,2 20,1 17,5 18 10 36 19 WNW 1018,7 26 0 0,0
21.06.2019 14:00:00 16,4 14,8 17,7 20,1 17,5 24 13 38 20 W 1018,6 30 0 0,0
21.06.2019 13:00:00 16,3 14,8 16,8 20,1 17,5 20 11 29 16 W 1018,4 13 0 0,0
21.06.2019 12:00:00 16,1 15,0 16,6 20,1 17,5 19 10 30 16 WNW 1017,9 7 0 0,2

tt = Température de l'air
td = dewpoint
tt 5cm = Température de l'air 5cm
tt -20cm = Température de l'air -20cm
tt -100cm = Température de l'air -100cm
ff = Vitesse du vent
fx = gusts
dd = Direction du vent
ppp = reduced air pressure
vv = visibility
sd = Ensoleillement
rr = Quantités de précipitations

stations d'obs. à proximité